Regional Weather Roundup
Issued by NWS

Home | Current Version | Previous Version | Graphics & Text | Print | Product List | Glossary On
Versions: 1 2 3 4 5 6 7 8 9 10 11 12 13 14 15 16 17 18 19 20 21 22 23 24 25 26 27 28 29 30 31 32 33 34 35 36 37 38 39 40 41 42 43 44 45 46 47 48 49 50
000
ASUS43 KLSX 230657
RWRMO

WEATHER SUMMARY FOR MISSOURI
NATIONAL WEATHER SERVICE SPRINGFIELD MO
100 AM CST FRI FEB 23 2018

NOTE: "FAIR" INDICATES FEW OR NO CLOUDS BELOW 12,000 FEET WITH NO
       SIGNIFICANT WEATHER AND/OR OBSTRUCTIONS TO VISIBILITY.
       CURRENT SKY AND/OR WEATHER CONDITIONS ARE NOT AVAILABLE FOR
       CHILLICOTHE AND FARMINGTON.

MOZ001>031-035>038-043-044-053-054-230800-
...NORTHERN AND WESTERN MISSOURI...

CITY           SKY/WX    TMP DP  RH WIND       PRES   REMARKS
KANSAS CTY INT FRZ DRZL  32  32 100 SW3       30.17S VSB 3/4
KANSAS C DTWN  CLOUDY    34  32  93 W5        30.19S FOG     WCI  30
LEE`S SUMMIT   CLOUDY    33  33 100 CALM      30.17F FOG
ST JOSEPH      CLOUDY    32  32 100 W3        30.19S FOG
CHILLICOTHE      N/A     34  33  96 CALM      30.19F
KIRKSVILLE     CLOUDY    36  36 100 W8        30.16R FOG     WCI  29

$$
MOZ066>068-077>081-088>096-101>105-230800-
...SOUTHWEST MISSOURI...

CITY           SKY/WX    TMP DP  RH WIND       PRES   REMARKS
SPRINGFIELD    CLOUDY    43  43 100 SW6       30.19R FOG
JOPLIN         CLOUDY    38  38 100 CALM      30.22S FOG

$$
MOZ032>034-039>042-045>050-055>058-069>072-230800-
...CENTRAL MISSOURI...

CITY           SKY/WX    TMP DP  RH WIND       PRES   REMARKS
COLUMBIA       NOT AVBL
JEFFERSON CITY LGT RAIN  42  41  96 CALM      30.18R FOG
ROLLA          CLOUDY    43  43 100 W15       30.18R FOG
SEDALIA        CLOUDY    40  40 100 W7        30.19S FOG
WARRENSBURG    CLOUDY    34  34 100 W5        30.20S WCI  30
OSAGE BEACH    LGT RAIN  43  43 100 S6        30.19S FOG

$$
MOZ051-052-059>065-230800-
...EAST CENTRAL MISSOURI...

CITY           SKY/WX    TMP DP  RH WIND       PRES   REMARKS
ST LOUIS INTL  CLOUDY    46  45  96 SE14      30.15F

$$
MOZ072>076-082>087-097>100-106>115-230800-
...SOUTH CENTRAL AND SOUTHEAST MISSOURI...

CITY           SKY/WX    TMP DP  RH WIND       PRES   REMARKS
CAPE GIRARDEAU LGT RAIN  50  49  96 SE9       30.18F FOG
POPLAR BLUFF   LGT RAIN  48  48 100 CALM      30.19F
WEST PLAINS    CLOUDY    45  44  97 S3        30.18R FOG

$$


USA.gov is the U.S. government's official web portal to all federal, state and local government web resources and services.